GFSFLT2_prec_precacc_027.txt.gz
Total_Precipitation_Accumulation
0.08 0.11 0.11 0.10 0.08 0.09 0.08 0.05 0.04 0.05 0.06 0.08 0.11 0.13 0.14 0.13 0.15 0.16 0.19 0.24 0.29 0.34 0.42 0.51 0.61 0.63 0.57
0.11 0.14 0.12 0.11 0.10 0.12 0.12 0.12 0.13 0.11 0.13 0.12 0.14 0.17 0.20 0.21 0.20 0.19 0.17 0.19 0.26 0.35 0.41 0.45 0.51 0.61 0.70
0.21 0.14 0.09 0.11 0.15 0.19 0.19 0.18 0.18 0.22 0.27 0.26 0.28 0.32 0.35 0.35 0.34 0.37 0.41 0.42 0.41 0.38 0.41 0.49 0.58 0.66 0.66
0.25 0.15 0.14 0.15 0.21 0.26 0.25 0.26 0.29 0.30 0.33 0.32 0.31 0.30 0.31 0.36 0.41 0.43 0.43 0.45 0.50 0.57 0.62 0.62 0.60 0.61 0.66
0.39 0.40 0.41 0.40 0.39 0.40 0.45 0.37 0.31 0.24 0.20 0.22 0.26 0.31 0.32 0.35 0.40 0.37 0.40 0.49 0.56 0.58 0.57 0.62 0.66 0.70 0.69
0.59 0.56 0.43 0.41 0.38 0.41 0.48 0.58 0.51 0.29 0.27 0.35 0.40 0.47 0.46 0.46 0.44 0.41 0.40 0.40 0.41 0.44 0.49 0.48 0.47 0.51 0.58
0.47 0.42 0.39 0.31 0.31 0.38 0.47 0.56 0.51 0.32 0.38 0.46 0.37 0.40 0.40 0.46 0.53 0.46 0.46 0.45 0.43 0.43 0.43 0.43 0.41 0.45 0.50
0.32 0.34 0.38 0.47 0.67 0.82 0.86 0.86 0.66 0.45 0.41 0.47 0.30 0.34 0.37 0.44 0.56 0.46 0.39 0.38 0.41 0.40 0.39 0.40 0.43 0.46 0.44
0.33 0.41 0.41 0.37 0.40 0.56 0.71 0.65 0.61 0.38 0.31 0.38 0.33 0.36 0.41 0.39 0.45 0.46 0.37 0.36 0.40 0.41 0.40 0.41 0.41 0.43 0.45
0.33 0.39 0.39 0.38 0.44 0.45 0.73 1.06 0.87 0.65 0.38 0.52 0.50 0.46 0.53 0.36 0.39 0.51 0.47 0.43 0.41 0.38 0.35 0.33 0.35 0.34 0.34
0.32 0.37 0.39 0.39 0.44 0.59 0.87 1.30 1.32 0.98 0.53 0.68 0.71 0.49 0.59 0.44 0.41 0.50 0.42 0.44 0.44 0.42 0.39 0.35 0.28 0.23 0.27
0.46 0.51 0.50 0.49 0.57 0.64 0.69 0.76 0.81 0.87 0.64 0.68 0.84 0.54 0.54 0.52 0.48 0.55 0.54 0.47 0.36 0.34 0.29 0.34 0.39 0.40 0.36
0.76 0.79 0.72 0.77 0.80 0.72 0.66 0.62 0.63 0.67 0.71 0.70 0.69 0.65 0.59 0.48 0.39 0.45 0.53 0.64 0.53 0.35 0.29 0.24 0.21 0.25 0.35
0.56 0.57 0.67 0.71 0.68 0.78 0.93 0.88 0.91 0.82 0.69 0.58 0.54 0.51 0.39 0.35 0.35 0.42 0.45 0.55 0.64 0.50 0.36 0.34 0.33 0.29 0.22
0.47 0.52 0.68 0.77 0.79 0.90 1.09 1.00 0.80 0.66 0.56 0.46 0.36 0.34 0.34 0.32 0.32 0.39 0.41 0.47 0.59 0.56 0.35 0.40 0.48 0.41 0.33
0.54 0.61 0.73 0.83 1.00 1.16 1.17 0.88 0.64 0.51 0.44 0.37 0.31 0.26 0.28 0.25 0.29 0.34 0.36 0.44 0.56 0.50 0.34 0.19 0.32 0.39 0.31
0.82 0.80 0.80 0.92 1.06 1.07 0.86 0.61 0.43 0.27 0.16 0.10 0.12 0.19 0.22 0.18 0.22 0.26 0.24 0.32 0.32 0.30 0.23 0.11 0.12 0.22 0.19

GFSFLT2_prec_precacc_030.txt.gz
Total_Precipitation_Accumulation
0.08 0.11 0.11 0.10 0.08 0.09 0.08 0.05 0.04 0.05 0.06 0.08 0.11 0.13 0.14 0.13 0.15 0.16 0.19 0.24 0.29 0.34 0.42 0.51 0.62 0.66 0.60
0.11 0.14 0.12 0.11 0.10 0.12 0.12 0.12 0.13 0.11 0.13 0.12 0.14 0.17 0.20 0.21 0.20 0.19 0.18 0.19 0.26 0.36 0.41 0.45 0.51 0.61 0.72
0.21 0.14 0.09 0.11 0.15 0.19 0.20 0.18 0.18 0.22 0.27 0.26 0.28 0.32 0.35 0.35 0.34 0.38 0.42 0.43 0.41 0.39 0.42 0.49 0.58 0.66 0.67
0.26 0.15 0.15 0.16 0.23 0.27 0.25 0.26 0.29 0.30 0.33 0.32 0.31 0.30 0.32 0.37 0.43 0.44 0.44 0.46 0.51 0.59 0.64 0.64 0.61 0.62 0.67
0.40 0.44 0.46 0.42 0.39 0.40 0.45 0.37 0.31 0.24 0.20 0.22 0.26 0.31 0.32 0.35 0.40 0.37 0.40 0.50 0.57 0.60 0.59 0.64 0.68 0.70 0.70
0.67 0.61 0.44 0.41 0.38 0.41 0.48 0.59 0.52 0.29 0.28 0.35 0.40 0.47 0.46 0.46 0.44 0.42 0.42 0.43 0.44 0.46 0.49 0.49 0.48 0.51 0.58
0.48 0.43 0.39 0.31 0.31 0.40 0.48 0.58 0.52 0.33 0.39 0.46 0.38 0.40 0.41 0.46 0.53 0.47 0.47 0.46 0.44 0.45 0.45 0.44 0.42 0.45 0.50
0.32 0.34 0.38 0.47 0.68 0.85 0.89 0.88 0.66 0.45 0.41 0.48 0.30 0.35 0.37 0.44 0.57 0.47 0.40 0.39 0.42 0.41 0.40 0.41 0.44 0.47 0.45
0.33 0.41 0.41 0.37 0.40 0.57 0.73 0.67 0.63 0.39 0.31 0.38 0.33 0.36 0.41 0.39 0.45 0.46 0.41 0.41 0.44 0.44 0.42 0.42 0.42 0.44 0.46
0.34 0.39 0.39 0.38 0.44 0.45 0.75 1.14 0.91 0.68 0.38 0.53 0.52 0.46 0.56 0.36 0.39 0.53 0.49 0.43 0.41 0.39 0.36 0.34 0.37 0.36 0.35
0.32 0.37 0.39 0.40 0.44 0.59 0.88 1.37 1.42 1.04 0.54 0.73 0.79 0.51 0.63 0.45 0.41 0.50 0.42 0.44 0.44 0.42 0.39 0.35 0.28 0.24 0.27
0.46 0.52 0.50 0.50 0.57 0.64 0.70 0.78 0.85 0.95 0.68 0.74 0.97 0.59 0.62 0.56 0.49 0.55 0.54 0.47 0.37 0.35 0.29 0.35 0.39 0.40 0.36
0.78 0.80 0.73 0.78 0.81 0.74 0.67 0.63 0.66 0.69 0.77 0.76 0.77 0.69 0.61 0.50 0.40 0.45 0.55 0.65 0.60 0.47 0.35 0.24 0.22 0.25 0.36
0.60 0.58 0.68 0.72 0.70 0.80 0.97 0.92 0.94 0.83 0.70 0.59 0.56 0.53 0.40 0.36 0.38 0.44 0.47 0.58 0.70 0.63 0.47 0.37 0.35 0.29 0.22
0.49 0.54 0.69 0.78 0.81 0.91 1.12 1.02 0.84 0.68 0.58 0.46 0.37 0.35 0.35 0.38 0.37 0.43 0.45 0.52 0.69 0.75 0.55 0.55 0.58 0.48 0.38
0.56 0.62 0.74 0.85 1.02 1.18 1.18 0.91 0.69 0.54 0.46 0.38 0.33 0.27 0.29 0.28 0.34 0.40 0.43 0.50 0.67 0.68 0.57 0.33 0.49 0.61 0.53
0.83 0.83 0.83 0.94 1.08 1.09 0.88 0.63 0.45 0.30 0.18 0.11 0.16 0.23 0.25 0.21 0.26 0.35 0.31 0.38 0.39 0.40 0.35 0.16 0.21 0.46 0.44

GFSFLT2_prec_precacc_033.txt.gz
Total_Precipitation_Accumulation
0.08 0.11 0.11 0.10 0.08 0.09 0.08 0.05 0.04 0.05 0.07 0.09 0.12 0.14 0.14 0.13 0.15 0.17 0.20 0.25 0.30 0.35 0.43 0.52 0.63 0.67 0.61
0.11 0.14 0.12 0.11 0.10 0.12 0.12 0.12 0.13 0.12 0.13 0.12 0.14 0.17 0.20 0.21 0.21 0.19 0.18 0.20 0.27 0.37 0.43 0.47 0.53 0.63 0.73
0.22 0.14 0.09 0.11 0.15 0.20 0.20 0.18 0.18 0.22 0.27 0.26 0.28 0.32 0.35 0.35 0.35 0.38 0.43 0.45 0.44 0.42 0.45 0.52 0.61 0.68 0.69
0.31 0.18 0.15 0.17 0.24 0.28 0.25 0.26 0.29 0.30 0.33 0.32 0.31 0.30 0.32 0.37 0.43 0.45 0.45 0.46 0.51 0.59 0.65 0.65 0.63 0.64 0.69
0.43 0.46 0.49 0.42 0.39 0.40 0.45 0.37 0.31 0.24 0.20 0.22 0.27 0.31 0.32 0.35 0.40 0.37 0.40 0.50 0.58 0.61 0.61 0.67 0.71 0.73 0.72
0.74 0.63 0.44 0.41 0.38 0.41 0.49 0.60 0.54 0.29 0.28 0.35 0.40 0.47 0.46 0.46 0.45 0.42 0.43 0.44 0.47 0.49 0.54 0.52 0.50 0.53 0.59
0.48 0.43 0.39 0.31 0.33 0.45 0.52 0.63 0.55 0.33 0.39 0.46 0.38 0.40 0.41 0.46 0.54 0.47 0.48 0.47 0.46 0.47 0.47 0.46 0.43 0.46 0.50
0.33 0.34 0.38 0.49 0.70 0.87 0.91 0.90 0.67 0.45 0.42 0.49 0.31 0.35 0.37 0.44 0.57 0.47 0.40 0.40 0.44 0.44 0.42 0.43 0.45 0.48 0.45
0.34 0.42 0.41 0.37 0.41 0.60 0.78 0.70 0.64 0.39 0.31 0.39 0.34 0.36 0.41 0.39 0.45 0.46 0.41 0.44 0.48 0.48 0.45 0.45 0.45 0.45 0.47
0.34 0.39 0.39 0.38 0.44 0.46 0.80 1.23 0.95 0.71 0.38 0.57 0.55 0.47 0.61 0.37 0.39 0.53 0.49 0.43 0.41 0.39 0.36 0.35 0.37 0.37 0.36
0.32 0.37 0.39 0.40 0.44 0.60 0.92 1.47 1.54 1.11 0.54 0.80 0.87 0.54 0.68 0.47 0.41 0.50 0.42 0.44 0.44 0.42 0.39 0.35 0.28 0.24 0.28
0.46 0.52 0.51 0.51 0.58 0.65 0.71 0.81 0.89 1.04 0.72 0.80 1.06 0.64 0.67 0.57 0.49 0.55 0.54 0.47 0.38 0.35 0.29 0.35 0.40 0.41 0.36
0.78 0.81 0.74 0.79 0.82 0.75 0.67 0.63 0.66 0.71 0.79 0.80 0.83 0.73 0.64 0.51 0.41 0.46 0.57 0.66 0.65 0.56 0.38 0.25 0.22 0.25 0.36
0.62 0.59 0.69 0.73 0.71 0.82 1.00 0.93 0.96 0.84 0.70 0.62 0.63 0.57 0.41 0.36 0.42 0.47 0.52 0.65 0.75 0.74 0.60 0.41 0.35 0.29 0.22
0.51 0.56 0.70 0.79 0.81 0.92 1.16 1.05 0.86 0.71 0.60 0.47 0.39 0.36 0.35 0.39 0.41 0.48 0.52 0.59 0.77 0.95 0.75 0.61 0.63 0.51 0.40
0.57 0.64 0.76 0.87 1.04 1.18 1.19 0.93 0.72 0.56 0.48 0.39 0.34 0.27 0.30 0.29 0.42 0.51 0.52 0.60 0.79 0.84 0.86 0.42 0.59 0.74 0.62
0.86 0.85 0.84 0.95 1.09 1.10 0.89 0.64 0.46 0.32 0.19 0.11 0.18 0.24 0.27 0.22 0.28 0.48 0.39 0.50 0.49 0.50 0.53 0.29 0.38 0.69 0.61

GFSFLT2_prec_precacc_036.txt.gz
Total_Precipitation_Accumulation
0.08 0.11 0.11 0.10 0.08 0.09 0.08 0.05 0.04 0.05 0.07 0.10 0.13 0.14 0.14 0.14 0.16 0.17 0.21 0.25 0.31 0.36 0.45 0.54 0.66 0.69 0.63
0.11 0.14 0.12 0.11 0.10 0.12 0.12 0.13 0.14 0.12 0.13 0.12 0.14 0.17 0.20 0.21 0.21 0.19 0.18 0.20 0.27 0.37 0.43 0.48 0.54 0.64 0.75
0.22 0.14 0.09 0.11 0.15 0.20 0.20 0.19 0.18 0.22 0.27 0.26 0.28 0.32 0.35 0.35 0.35 0.39 0.44 0.47 0.46 0.43 0.46 0.55 0.64 0.72 0.72
0.33 0.21 0.16 0.17 0.25 0.28 0.25 0.26 0.29 0.30 0.33 0.32 0.31 0.30 0.32 0.37 0.43 0.45 0.45 0.46 0.52 0.59 0.65 0.65 0.63 0.64 0.70
0.46 0.49 0.53 0.43 0.39 0.40 0.45 0.37 0.31 0.24 0.21 0.22 0.27 0.32 0.33 0.35 0.40 0.37 0.41 0.50 0.58 0.61 0.62 0.69 0.73 0.75 0.74
0.84 0.68 0.44 0.41 0.38 0.41 0.51 0.64 0.56 0.29 0.28 0.35 0.40 0.47 0.46 0.46 0.45 0.42 0.43 0.45 0.47 0.50 0.56 0.55 0.54 0.56 0.62
0.49 0.43 0.39 0.32 0.39 0.51 0.55 0.64 0.56 0.33 0.39 0.47 0.38 0.40 0.41 0.46 0.54 0.47 0.48 0.47 0.47 0.47 0.48 0.47 0.45 0.48 0.53
0.33 0.35 0.39 0.51 0.72 0.88 0.94 0.92 0.67 0.45 0.42 0.52 0.31 0.35 0.37 0.44 0.57 0.47 0.40 0.41 0.44 0.45 0.44 0.45 0.46 0.49 0.47
0.36 0.43 0.41 0.37 0.41 0.65 0.82 0.73 0.66 0.39 0.31 0.41 0.35 0.36 0.41 0.39 0.45 0.46 0.41 0.44 0.49 0.50 0.49 0.51 0.52 0.50 0.49
0.34 0.39 0.39 0.38 0.44 0.47 0.86 1.30 0.98 0.73 0.38 0.61 0.57 0.49 0.65 0.37 0.39 0.53 0.49 0.43 0.42 0.40 0.37 0.36 0.39 0.38 0.37
0.32 0.37 0.39 0.40 0.45 0.61 0.95 1.55 1.64 1.17 0.54 0.88 0.95 0.56 0.72 0.49 0.41 0.50 0.42 0.44 0.45 0.43 0.39 0.35 0.28 0.24 0.28
0.46 0.52 0.51 0.51 0.58 0.65 0.72 0.83 0.94 1.15 0.77 0.86 1.17 0.69 0.72 0.59 0.49 0.55 0.54 0.47 0.41 0.38 0.32 0.37 0.41 0.41 0.37
0.79 0.81 0.75 0.80 0.83 0.75 0.67 0.64 0.68 0.73 0.83 0.84 0.90 0.79 0.68 0.53 0.42 0.46 0.60 0.67 0.71 0.65 0.45 0.28 0.23 0.25 0.36
0.64 0.60 0.70 0.73 0.72 0.83 1.02 0.94 0.97 0.84 0.70 0.62 0.68 0.62 0.43 0.37 0.46 0.50 0.54 0.76 0.85 0.87 0.73 0.45 0.35 0.30 0.22
0.52 0.57 0.70 0.79 0.82 0.93 1.17 1.06 0.88 0.73 0.60 0.47 0.39 0.37 0.36 0.42 0.45 0.54 0.61 0.66 0.86 1.10 0.92 0.67 0.64 0.51 0.40
0.58 0.64 0.78 0.87 1.04 1.19 1.20 0.94 0.73 0.57 0.49 0.40 0.35 0.28 0.30 0.29 0.47 0.64 0.61 0.67 0.89 0.98 1.00 0.44 0.62 0.77 0.62
0.87 0.87 0.86 0.96 1.09 1.11 0.91 0.64 0.47 0.34 0.19 0.13 0.20 0.26 0.29 0.23 0.29 0.60 0.51 0.60 0.60 0.63 0.66 0.37 0.45 0.79 0.64

GFSFLT2_prec_precacc_039.txt.gz
Total_Precipitation_Accumulation
0.08 0.11 0.11 0.10 0.08 0.09 0.08 0.05 0.04 0.05 0.07 0.10 0.13 0.14 0.14 0.14 0.16 0.18 0.21 0.26 0.31 0.37 0.47 0.57 0.69 0.73 0.68
0.11 0.14 0.12 0.11 0.10 0.12 0.12 0.13 0.14 0.12 0.13 0.12 0.14 0.17 0.20 0.21 0.21 0.20 0.18 0.20 0.27 0.38 0.44 0.49 0.56 0.66 0.77
0.22 0.14 0.09 0.11 0.15 0.20 0.20 0.19 0.18 0.22 0.27 0.26 0.28 0.32 0.35 0.35 0.35 0.40 0.47 0.50 0.49 0.46 0.49 0.57 0.66 0.75 0.76
0.34 0.21 0.16 0.18 0.26 0.28 0.25 0.26 0.29 0.30 0.33 0.32 0.31 0.30 0.32 0.37 0.43 0.45 0.45 0.47 0.53 0.60 0.66 0.66 0.64 0.66 0.72
0.49 0.54 0.55 0.44 0.39 0.40 0.45 0.37 0.32 0.25 0.21 0.22 0.27 0.32 0.33 0.35 0.40 0.37 0.41 0.50 0.58 0.62 0.62 0.70 0.75 0.77 0.75
0.88 0.69 0.44 0.41 0.38 0.42 0.54 0.66 0.57 0.29 0.28 0.35 0.40 0.47 0.46 0.46 0.45 0.42 0.43 0.45 0.48 0.52 0.58 0.58 0.56 0.59 0.66
0.49 0.43 0.39 0.33 0.44 0.55 0.56 0.64 0.57 0.33 0.40 0.48 0.38 0.40 0.41 0.46 0.54 0.47 0.48 0.48 0.47 0.48 0.49 0.49 0.47 0.50 0.55
0.33 0.35 0.41 0.53 0.73 0.90 0.97 0.94 0.68 0.45 0.42 0.54 0.31 0.35 0.37 0.44 0.57 0.47 0.40 0.41 0.45 0.46 0.46 0.47 0.48 0.51 0.48
0.37 0.43 0.41 0.37 0.41 0.71 0.85 0.75 0.67 0.39 0.31 0.42 0.36 0.36 0.41 0.39 0.45 0.46 0.42 0.44 0.50 0.51 0.50 0.53 0.55 0.54 0.52
0.34 0.39 0.39 0.38 0.44 0.49 0.91 1.37 1.00 0.75 0.38 0.65 0.59 0.50 0.71 0.37 0.39 0.53 0.49 0.43 0.42 0.40 0.37 0.36 0.40 0.41 0.43
0.32 0.37 0.39 0.40 0.45 0.61 0.97 1.63 1.74 1.23 0.55 0.96 1.02 0.57 0.75 0.50 0.41 0.50 0.42 0.44 0.45 0.43 0.40 0.36 0.29 0.26 0.30
0.47 0.52 0.51 0.51 0.58 0.65 0.72 0.84 0.99 1.25 0.82 0.91 1.26 0.74 0.79 0.62 0.49 0.55 0.54 0.49 0.48 0.42 0.35 0.39 0.43 0.42 0.38
0.79 0.81 0.75 0.80 0.83 0.75 0.67 0.64 0.68 0.74 0.86 0.85 0.95 0.84 0.74 0.59 0.44 0.47 0.65 0.69 0.75 0.75 0.53 0.33 0.26 0.27 0.37
0.65 0.60 0.70 0.73 0.72 0.83 1.02 0.94 0.98 0.84 0.70 0.62 0.70 0.67 0.47 0.40 0.54 0.54 0.58 0.88 0.91 0.98 0.87 0.52 0.39 0.31 0.22
0.52 0.57 0.70 0.79 0.82 0.93 1.17 1.07 0.89 0.74 0.61 0.47 0.39 0.37 0.38 0.46 0.50 0.59 0.70 0.72 0.96 1.28 1.08 0.70 0.65 0.51 0.40
0.58 0.65 0.78 0.88 1.05 1.19 1.20 0.95 0.74 0.58 0.50 0.41 0.35 0.28 0.30 0.29 0.53 0.75 0.69 0.76 1.04 1.18 1.14 0.46 0.63 0.78 0.62
0.87 0.88 0.88 0.97 1.09 1.11 0.91 0.65 0.47 0.34 0.19 0.14 0.22 0.27 0.30 0.23 0.29 0.65 0.67 0.73 0.69 0.74 0.75 0.43 0.52 0.84 0.66

GFSFLT2_prec_precacc_042.txt.gz
Total_Precipitation_Accumulation
0.08 0.11 0.11 0.10 0.08 0.09 0.08 0.05 0.04 0.05 0.08 0.10 0.13 0.14 0.14 0.14 0.16 0.19 0.23 0.29 0.34 0.40 0.49 0.59 0.72 0.77 0.72
0.11 0.14 0.12 0.11 0.10 0.12 0.12 0.13 0.14 0.12 0.13 0.12 0.14 0.18 0.21 0.21 0.22 0.22 0.20 0.22 0.29 0.40 0.47 0.51 0.58 0.68 0.79
0.22 0.14 0.09 0.11 0.15 0.20 0.20 0.19 0.18 0.22 0.27 0.26 0.28 0.32 0.35 0.36 0.36 0.42 0.49 0.52 0.52 0.48 0.52 0.61 0.71 0.79 0.79
0.35 0.23 0.18 0.18 0.26 0.28 0.25 0.26 0.29 0.30 0.33 0.32 0.31 0.31 0.32 0.37 0.43 0.45 0.45 0.47 0.53 0.60 0.66 0.67 0.66 0.69 0.75
0.55 0.57 0.55 0.44 0.39 0.40 0.45 0.37 0.32 0.25 0.21 0.22 0.27 0.32 0.33 0.35 0.40 0.37 0.41 0.51 0.58 0.62 0.63 0.71 0.76 0.78 0.76
0.89 0.69 0.44 0.41 0.38 0.43 0.56 0.67 0.58 0.29 0.28 0.36 0.40 0.47 0.46 0.46 0.45 0.43 0.44 0.46 0.48 0.53 0.60 0.61 0.59 0.61 0.69
0.49 0.43 0.40 0.35 0.47 0.57 0.57 0.66 0.58 0.33 0.40 0.48 0.38 0.40 0.41 0.46 0.54 0.47 0.48 0.48 0.48 0.49 0.51 0.52 0.49 0.53 0.58
0.33 0.35 0.43 0.54 0.73 0.91 1.00 0.95 0.68 0.45 0.42 0.55 0.31 0.35 0.37 0.44 0.57 0.47 0.40 0.42 0.46 0.47 0.48 0.48 0.50 0.53 0.50
0.38 0.43 0.41 0.37 0.41 0.74 0.87 0.77 0.67 0.39 0.31 0.43 0.36 0.37 0.41 0.39 0.45 0.46 0.42 0.45 0.50 0.52 0.51 0.54 0.56 0.56 0.54
0.34 0.39 0.39 0.38 0.44 0.49 0.93 1.42 1.03 0.77 0.38 0.69 0.60 0.51 0.74 0.38 0.39 0.53 0.49 0.43 0.42 0.40 0.38 0.37 0.41 0.41 0.44
0.32 0.37 0.39 0.40 0.45 0.61 0.97 1.67 1.80 1.27 0.55 1.03 1.08 0.58 0.79 0.51 0.41 0.50 0.42 0.45 0.47 0.44 0.41 0.37 0.31 0.28 0.35
0.47 0.52 0.51 0.51 0.58 0.65 0.72 0.85 1.00 1.29 0.83 0.94 1.35 0.78 0.85 0.64 0.50 0.55 0.54 0.49 0.52 0.45 0.37 0.41 0.46 0.46 0.42
0.80 0.81 0.75 0.80 0.83 0.75 0.67 0.64 0.68 0.74 0.86 0.85 0.99 0.88 0.80 0.67 0.51 0.48 0.67 0.70 0.76 0.79 0.59 0.39 0.31 0.30 0.40
0.65 0.60 0.70 0.73 0.72 0.83 1.03 0.94 0.98 0.84 0.70 0.63 0.73 0.73 0.53 0.43 0.63 0.57 0.59 0.96 0.97 1.05 0.96 0.56 0.43 0.32 0.23
0.53 0.58 0.70 0.80 0.82 0.93 1.18 1.08 0.90 0.74 0.61 0.47 0.39 0.38 0.40 0.48 0.51 0.61 0.78 0.76 1.05 1.39 1.11 0.72 0.66 0.52 0.40
0.58 0.65 0.79 0.89 1.06 1.19 1.20 0.95 0.75 0.58 0.51 0.41 0.35 0.28 0.30 0.29 0.57 0.81 0.73 0.82 1.13 1.28 1.21 0.50 0.65 0.78 0.62
0.88 0.89 0.91 0.98 1.10 1.11 0.91 0.65 0.47 0.35 0.20 0.15 0.22 0.28 0.31 0.23 0.29 0.66 0.77 0.81 0.73 0.79 0.81 0.50 0.56 0.86 0.66

GFSFLT2_prec_precacc_048.txt.gz
Total_Precipitation_Accumulation
0.08 0.11 0.11 0.10 0.08 0.09 0.08 0.05 0.04 0.05 0.08 0.10 0.13 0.14 0.14 0.14 0.17 0.20 0.27 0.33 0.40 0.48 0.58 0.69 0.82 0.86 0.81
0.11 0.14 0.12 0.11 0.10 0.12 0.12 0.13 0.14 0.12 0.13 0.12 0.14 0.18 0.21 0.22 0.23 0.23 0.22 0.24 0.32 0.45 0.54 0.59 0.66 0.77 0.87
0.22 0.14 0.10 0.12 0.15 0.20 0.20 0.19 0.18 0.22 0.27 0.26 0.28 0.32 0.36 0.36 0.36 0.42 0.51 0.54 0.53 0.50 0.54 0.64 0.75 0.85 0.86
0.39 0.28 0.20 0.18 0.26 0.28 0.25 0.26 0.29 0.30 0.33 0.32 0.31 0.31 0.32 0.37 0.43 0.45 0.46 0.48 0.54 0.61 0.67 0.69 0.68 0.71 0.78
0.63 0.58 0.55 0.44 0.39 0.40 0.46 0.38 0.32 0.25 0.21 0.22 0.27 0.32 0.33 0.35 0.40 0.37 0.41 0.51 0.59 0.63 0.65 0.73 0.78 0.81 0.79
0.90 0.69 0.44 0.41 0.38 0.44 0.59 0.68 0.59 0.29 0.28 0.36 0.40 0.47 0.46 0.46 0.45 0.43 0.44 0.46 0.49 0.54 0.62 0.64 0.63 0.66 0.75
0.49 0.43 0.40 0.36 0.53 0.60 0.59 0.68 0.61 0.34 0.40 0.48 0.38 0.40 0.41 0.46 0.54 0.47 0.48 0.48 0.48 0.51 0.53 0.55 0.53 0.57 0.62
0.33 0.36 0.45 0.57 0.74 0.93 1.02 0.97 0.69 0.45 0.42 0.55 0.31 0.35 0.37 0.44 0.57 0.47 0.40 0.42 0.46 0.48 0.49 0.51 0.54 0.58 0.55
0.39 0.44 0.42 0.37 0.41 0.76 0.89 0.79 0.68 0.39 0.31 0.43 0.36 0.37 0.41 0.39 0.45 0.46 0.42 0.45 0.51 0.53 0.53 0.57 0.60 0.60 0.59
0.34 0.39 0.39 0.38 0.44 0.50 0.94 1.49 1.05 0.80 0.38 0.73 0.61 0.52 0.79 0.38 0.39 0.53 0.49 0.43 0.42 0.41 0.40 0.41 0.45 0.47 0.51
0.32 0.37 0.39 0.40 0.45 0.61 0.98 1.74 1.89 1.32 0.55 1.13 1.15 0.59 0.83 0.52 0.41 0.50 0.42 0.45 0.47 0.45 0.41 0.39 0.36 0.36 0.50
0.47 0.52 0.51 0.51 0.59 0.65 0.72 0.85 1.01 1.32 0.84 0.98 1.48 0.83 0.94 0.69 0.51 0.55 0.54 0.49 0.53 0.46 0.38 0.42 0.50 0.55 0.57
0.81 0.82 0.75 0.80 0.84 0.76 0.68 0.64 0.68 0.74 0.86 0.86 1.06 0.94 0.86 0.77 0.63 0.50 0.68 0.70 0.76 0.81 0.63 0.46 0.41 0.40 0.49
0.66 0.61 0.70 0.74 0.73 0.83 1.04 0.95 1.00 0.84 0.70 0.63 0.77 0.83 0.63 0.46 0.72 0.61 0.60 1.04 1.03 1.09 1.03 0.61 0.48 0.37 0.26
0.54 0.59 0.71 0.80 0.82 0.93 1.19 1.09 0.91 0.74 0.61 0.47 0.39 0.39 0.42 0.49 0.52 0.62 0.86 0.83 1.09 1.47 1.22 0.78 0.68 0.55 0.41
0.59 0.66 0.80 0.89 1.07 1.19 1.21 0.96 0.76 0.59 0.51 0.41 0.36 0.29 0.30 0.29 0.58 0.87 0.77 0.89 1.18 1.35 1.32 0.58 0.68 0.81 0.62
0.89 0.90 0.94 1.00 1.10 1.12 0.92 0.66 0.48 0.35 0.20 0.15 0.24 0.32 0.34 0.24 0.29 0.68 0.89 0.90 0.79 0.85 0.90 0.58 0.60 0.87 0.66

GFSFLT2_prec_precacc_051.txt.gz
Total_Precipitation_Accumulation
0.08 0.11 0.11 0.10 0.08 0.09 0.08 0.05 0.04 0.05 0.08 0.10 0.13 0.14 0.15 0.14 0.17 0.21 0.27 0.34 0.41 0.49 0.60 0.72 0.86 0.91 0.86
0.11 0.14 0.12 0.11 0.10 0.12 0.12 0.13 0.14 0.12 0.13 0.12 0.14 0.18 0.21 0.22 0.23 0.24 0.22 0.24 0.32 0.46 0.55 0.61 0.68 0.79 0.90
0.22 0.14 0.10 0.12 0.16 0.20 0.20 0.19 0.18 0.22 0.27 0.26 0.28 0.32 0.36 0.36 0.36 0.42 0.51 0.54 0.53 0.50 0.55 0.64 0.76 0.85 0.88
0.39 0.28 0.21 0.19 0.26 0.28 0.25 0.26 0.29 0.30 0.33 0.32 0.31 0.31 0.32 0.37 0.43 0.45 0.46 0.48 0.54 0.61 0.68 0.69 0.69 0.71 0.79
0.65 0.59 0.56 0.44 0.39 0.40 0.46 0.38 0.32 0.25 0.21 0.22 0.27 0.32 0.33 0.35 0.40 0.37 0.41 0.51 0.59 0.63 0.65 0.74 0.79 0.82 0.80
0.92 0.70 0.44 0.41 0.38 0.45 0.59 0.69 0.59 0.29 0.28 0.36 0.40 0.47 0.46 0.46 0.45 0.43 0.44 0.46 0.49 0.54 0.62 0.64 0.64 0.67 0.76
0.50 0.43 0.40 0.36 0.53 0.62 0.60 0.69 0.61 0.34 0.40 0.48 0.38 0.40 0.41 0.46 0.54 0.47 0.48 0.48 0.48 0.51 0.54 0.56 0.54 0.58 0.64
0.33 0.36 0.45 0.57 0.76 0.95 1.03 0.97 0.69 0.45 0.42 0.55 0.31 0.35 0.37 0.44 0.57 0.47 0.40 0.42 0.46 0.48 0.49 0.51 0.55 0.60 0.57
0.39 0.44 0.42 0.37 0.41 0.77 0.90 0.79 0.69 0.39 0.31 0.43 0.36 0.37 0.41 0.39 0.45 0.46 0.42 0.45 0.51 0.53 0.53 0.58 0.61 0.62 0.61
0.35 0.39 0.39 0.38 0.44 0.50 0.95 1.53 1.05 0.81 0.38 0.75 0.62 0.52 0.81 0.38 0.39 0.53 0.49 0.43 0.42 0.41 0.40 0.41 0.46 0.48 0.52
0.32 0.37 0.39 0.40 0.45 0.61 0.98 1.76 1.91 1.35 0.55 1.15 1.19 0.59 0.85 0.53 0.41 0.50 0.42 0.45 0.47 0.45 0.41 0.39 0.36 0.37 0.55
0.47 0.52 0.51 0.52 0.59 0.65 0.72 0.85 1.02 1.34 0.84 0.99 1.52 0.85 0.98 0.71 0.52 0.55 0.54 0.49 0.53 0.46 0.39 0.44 0.52 0.57 0.59
0.81 0.82 0.75 0.80 0.84 0.76 0.68 0.64 0.68 0.74 0.86 0.86 1.08 0.96 0.90 0.80 0.66 0.50 0.68 0.70 0.76 0.81 0.64 0.47 0.42 0.42 0.55
0.67 0.61 0.70 0.74 0.73 0.83 1.04 0.95 1.00 0.84 0.70 0.63 0.77 0.85 0.69 0.47 0.74 0.62 0.60 1.04 1.04 1.09 1.04 0.61 0.49 0.40 0.30
0.55 0.60 0.71 0.80 0.82 0.93 1.19 1.10 0.92 0.75 0.61 0.47 0.39 0.39 0.44 0.52 0.53 0.62 0.86 0.84 1.10 1.48 1.24 0.79 0.68 0.55 0.42
0.60 0.66 0.81 0.90 1.08 1.20 1.21 0.97 0.78 0.59 0.52 0.41 0.36 0.29 0.30 0.29 0.59 0.88 0.77 0.89 1.18 1.35 1.33 0.62 0.69 0.81 0.63
0.90 0.91 0.94 1.01 1.11 1.13 0.92 0.67 0.48 0.35 0.20 0.15 0.24 0.34 0.37 0.24 0.29 0.68 0.91 0.91 0.80 0.85 0.90 0.60 0.64 0.88 0.68

GFSFLT2_prec_precacc_054.txt.gz
Total_Precipitation_Accumulation
0.08 0.11 0.11 0.10 0.08 0.09 0.08 0.05 0.04 0.05 0.08 0.10 0.13 0.14 0.15 0.15 0.17 0.21 0.27 0.34 0.42 0.50 0.61 0.73 0.90 0.95 0.90
0.11 0.14 0.12 0.11 0.10 0.12 0.12 0.13 0.14 0.12 0.13 0.12 0.14 0.18 0.21 0.22 0.23 0.24 0.22 0.25 0.32 0.46 0.56 0.62 0.69 0.80 0.92
0.22 0.14 0.10 0.12 0.16 0.20 0.20 0.19 0.18 0.22 0.27 0.26 0.28 0.32 0.36 0.36 0.36 0.43 0.51 0.54 0.53 0.50 0.55 0.64 0.76 0.86 0.88
0.39 0.28 0.21 0.19 0.26 0.28 0.25 0.26 0.29 0.30 0.33 0.32 0.31 0.31 0.32 0.37 0.43 0.45 0.46 0.48 0.54 0.61 0.68 0.69 0.69 0.72 0.79
0.66 0.60 0.56 0.44 0.39 0.40 0.46 0.38 0.32 0.25 0.21 0.22 0.27 0.32 0.33 0.35 0.40 0.37 0.41 0.51 0.59 0.63 0.65 0.74 0.79 0.83 0.81
0.93 0.71 0.44 0.41 0.38 0.45 0.59 0.70 0.61 0.29 0.28 0.36 0.40 0.47 0.46 0.46 0.45 0.43 0.44 0.46 0.49 0.54 0.62 0.65 0.65 0.68 0.77
0.50 0.43 0.40 0.36 0.53 0.63 0.61 0.70 0.61 0.34 0.40 0.48 0.38 0.40 0.41 0.46 0.54 0.47 0.48 0.48 0.48 0.51 0.54 0.56 0.55 0.59 0.65
0.33 0.36 0.46 0.57 0.78 0.99 1.04 0.97 0.69 0.45 0.42 0.55 0.31 0.35 0.37 0.44 0.57 0.47 0.40 0.42 0.46 0.48 0.49 0.51 0.56 0.61 0.59
0.39 0.45 0.42 0.37 0.41 0.77 0.90 0.80 0.69 0.39 0.31 0.43 0.36 0.37 0.41 0.39 0.45 0.46 0.42 0.45 0.51 0.53 0.53 0.58 0.62 0.63 0.62
0.35 0.39 0.39 0.38 0.44 0.50 0.95 1.57 1.07 0.83 0.38 0.77 0.63 0.53 0.82 0.38 0.39 0.53 0.49 0.43 0.42 0.41 0.40 0.41 0.46 0.49 0.53
0.32 0.37 0.39 0.40 0.45 0.61 0.98 1.78 1.95 1.37 0.55 1.19 1.25 0.60 0.88 0.54 0.41 0.50 0.42 0.45 0.47 0.45 0.41 0.39 0.37 0.39 0.58
0.47 0.52 0.51 0.52 0.59 0.66 0.72 0.85 1.02 1.36 0.84 1.00 1.59 0.87 1.01 0.73 0.52 0.55 0.54 0.49 0.53 0.46 0.39 0.44 0.53 0.59 0.61
0.81 0.82 0.75 0.80 0.84 0.76 0.68 0.64 0.68 0.74 0.86 0.86 1.09 0.98 0.94 0.84 0.67 0.51 0.68 0.70 0.76 0.81 0.64 0.47 0.42 0.42 0.56
0.67 0.61 0.70 0.74 0.73 0.84 1.05 0.95 1.01 0.84 0.70 0.63 0.77 0.87 0.73 0.49 0.76 0.64 0.60 1.05 1.04 1.09 1.04 0.61 0.49 0.40 0.31
0.55 0.60 0.71 0.80 0.83 0.93 1.20 1.11 0.94 0.75 0.62 0.47 0.39 0.39 0.45 0.54 0.57 0.63 0.86 0.84 1.10 1.48 1.25 0.81 0.69 0.55 0.42
0.60 0.67 0.82 0.90 1.08 1.20 1.21 0.98 0.79 0.60 0.52 0.42 0.36 0.31 0.30 0.29 0.59 0.89 0.78 0.89 1.18 1.36 1.34 0.64 0.70 0.81 0.63
0.90 0.92 0.95 1.02 1.11 1.13 0.93 0.67 0.49 0.35 0.21 0.15 0.25 0.36 0.40 0.25 0.29 0.68 0.93 0.91 0.80 0.86 0.91 0.61 0.66 0.88 0.69

GFSFLT2_prec_precacc_057.txt.gz
Total_Precipitation_Accumulation
0.08 0.11 0.11 0.10 0.08 0.09 0.08 0.05 0.04 0.05 0.08 0.10 0.13 0.14 0.15 0.15 0.17 0.21 0.27 0.35 0.42 0.51 0.62 0.76 0.94 1.00 0.95
0.11 0.14 0.12 0.11 0.10 0.12 0.12 0.13 0.14 0.12 0.13 0.12 0.14 0.18 0.21 0.22 0.23 0.24 0.23 0.25 0.33 0.47 0.56 0.62 0.69 0.81 0.94
0.22 0.14 0.10 0.12 0.16 0.20 0.20 0.19 0.18 0.22 0.27 0.26 0.28 0.32 0.36 0.36 0.36 0.43 0.51 0.54 0.53 0.50 0.55 0.64 0.76 0.86 0.89
0.39 0.28 0.21 0.19 0.26 0.28 0.25 0.26 0.29 0.30 0.33 0.32 0.31 0.31 0.32 0.37 0.43 0.45 0.46 0.48 0.54 0.62 0.68 0.70 0.70 0.73 0.81
0.66 0.60 0.56 0.44 0.39 0.40 0.46 0.38 0.32 0.25 0.21 0.22 0.27 0.32 0.33 0.35 0.40 0.37 0.41 0.51 0.59 0.64 0.66 0.74 0.80 0.84 0.82
0.94 0.71 0.45 0.41 0.38 0.45 0.59 0.70 0.61 0.29 0.28 0.36 0.40 0.47 0.46 0.46 0.45 0.43 0.44 0.46 0.49 0.54 0.63 0.66 0.65 0.69 0.78
0.50 0.43 0.40 0.36 0.53 0.64 0.62 0.71 0.62 0.34 0.40 0.48 0.38 0.40 0.41 0.46 0.54 0.47 0.48 0.48 0.48 0.51 0.54 0.56 0.56 0.60 0.66
0.33 0.36 0.46 0.57 0.78 1.03 1.05 0.98 0.69 0.45 0.42 0.55 0.31 0.35 0.37 0.44 0.57 0.47 0.40 0.42 0.46 0.48 0.49 0.52 0.56 0.61 0.59
0.39 0.45 0.42 0.37 0.41 0.77 0.90 0.81 0.70 0.39 0.31 0.43 0.36 0.37 0.41 0.39 0.45 0.46 0.42 0.45 0.51 0.53 0.53 0.58 0.62 0.64 0.62
0.35 0.39 0.39 0.38 0.44 0.50 0.95 1.59 1.09 0.85 0.38 0.78 0.63 0.53 0.84 0.38 0.39 0.53 0.49 0.43 0.42 0.41 0.40 0.41 0.46 0.49 0.53
0.32 0.37 0.39 0.40 0.45 0.61 0.98 1.80 1.97 1.39 0.55 1.23 1.29 0.60 0.90 0.54 0.41 0.50 0.42 0.45 0.47 0.45 0.41 0.39 0.37 0.39 0.60
0.47 0.52 0.51 0.52 0.59 0.66 0.72 0.85 1.02 1.37 0.84 1.01 1.65 0.89 1.05 0.75 0.52 0.55 0.54 0.49 0.53 0.46 0.39 0.44 0.53 0.59 0.61
0.81 0.82 0.75 0.80 0.84 0.76 0.68 0.64 0.68 0.74 0.86 0.86 1.11 1.00 0.96 0.87 0.69 0.51 0.68 0.70 0.76 0.81 0.64 0.47 0.42 0.42 0.57
0.67 0.61 0.70 0.74 0.73 0.84 1.05 0.95 1.02 0.84 0.70 0.63 0.77 0.88 0.76 0.50 0.78 0.65 0.60 1.05 1.04 1.09 1.04 0.61 0.49 0.40 0.31
0.56 0.61 0.72 0.80 0.83 0.93 1.20 1.13 0.96 0.75 0.62 0.47 0.39 0.39 0.45 0.55 0.58 0.63 0.86 0.84 1.10 1.48 1.25 0.81 0.69 0.55 0.42
0.61 0.67 0.83 0.91 1.09 1.20 1.22 0.99 0.80 0.60 0.52 0.42 0.36 0.31 0.30 0.29 0.59 0.89 0.78 0.89 1.18 1.36 1.34 0.67 0.71 0.81 0.63
0.91 0.92 0.96 1.04 1.12 1.13 0.93 0.68 0.49 0.35 0.21 0.15 0.27 0.39 0.43 0.26 0.29 0.68 0.93 0.92 0.80 0.86 0.91 0.62 0.68 0.88 0.69

GFSFLT2_prec_precacc_060.txt.gz
Total_Precipitation_Accumulation
0.08 0.11 0.11 0.10 0.08 0.09 0.08 0.05 0.04 0.05 0.08 0.10 0.13 0.14 0.15 0.15 0.17 0.21 0.28 0.36 0.43 0.52 0.64 0.79 0.98 1.05 0.99
0.11 0.14 0.12 0.11 0.10 0.12 0.12 0.13 0.14 0.12 0.13 0.12 0.14 0.18 0.21 0.22 0.23 0.24 0.23 0.25 0.33 0.47 0.56 0.62 0.70 0.83 0.98
0.22 0.14 0.10 0.12 0.16 0.20 0.20 0.19 0.18 0.22 0.27 0.26 0.28 0.32 0.36 0.36 0.37 0.43 0.51 0.54 0.53 0.50 0.55 0.65 0.77 0.88 0.91
0.39 0.28 0.21 0.19 0.26 0.28 0.25 0.26 0.29 0.30 0.33 0.32 0.31 0.31 0.32 0.37 0.43 0.45 0.46 0.48 0.54 0.62 0.68 0.70 0.71 0.74 0.82
0.66 0.60 0.56 0.44 0.39 0.40 0.46 0.38 0.32 0.25 0.21 0.22 0.27 0.32 0.33 0.35 0.40 0.37 0.41 0.51 0.59 0.64 0.66 0.75 0.81 0.85 0.84
0.94 0.71 0.45 0.41 0.38 0.45 0.59 0.70 0.62 0.29 0.28 0.36 0.40 0.47 0.46 0.46 0.45 0.43 0.44 0.46 0.49 0.55 0.63 0.66 0.67 0.71 0.80
0.50 0.43 0.40 0.36 0.53 0.65 0.64 0.73 0.62 0.34 0.40 0.48 0.38 0.40 0.41 0.46 0.54 0.47 0.48 0.48 0.49 0.51 0.54 0.57 0.56 0.61 0.67
0.33 0.36 0.46 0.57 0.80 1.06 1.07 0.98 0.69 0.45 0.42 0.56 0.31 0.35 0.37 0.44 0.57 0.47 0.40 0.42 0.46 0.48 0.49 0.52 0.56 0.62 0.60
0.39 0.45 0.43 0.37 0.41 0.77 0.90 0.81 0.70 0.39 0.31 0.43 0.36 0.37 0.41 0.39 0.45 0.46 0.42 0.45 0.51 0.53 0.53 0.58 0.62 0.64 0.63
0.35 0.39 0.39 0.38 0.44 0.50 0.95 1.60 1.10 0.86 0.38 0.79 0.64 0.53 0.85 0.38 0.39 0.53 0.49 0.43 0.42 0.41 0.40 0.41 0.46 0.49 0.53
0.32 0.37 0.39 0.40 0.45 0.61 0.98 1.80 2.00 1.41 0.56 1.25 1.33 0.60 0.92 0.55 0.41 0.50 0.42 0.45 0.47 0.45 0.41 0.39 0.37 0.39 0.60
0.47 0.52 0.51 0.52 0.59 0.66 0.72 0.85 1.03 1.38 0.84 1.02 1.70 0.90 1.08 0.77 0.52 0.55 0.54 0.49 0.53 0.46 0.39 0.44 0.53 0.59 0.62
0.81 0.82 0.75 0.80 0.84 0.76 0.68 0.64 0.68 0.74 0.86 0.86 1.12 1.01 0.99 0.89 0.70 0.51 0.68 0.70 0.76 0.81 0.64 0.47 0.42 0.43 0.57
0.67 0.61 0.70 0.74 0.73 0.84 1.06 0.96 1.02 0.84 0.70 0.63 0.77 0.89 0.79 0.52 0.79 0.67 0.60 1.05 1.04 1.09 1.04 0.61 0.49 0.40 0.31
0.56 0.61 0.72 0.81 0.83 0.93 1.20 1.13 0.97 0.75 0.62 0.47 0.39 0.39 0.45 0.55 0.59 0.64 0.86 0.84 1.10 1.48 1.25 0.82 0.69 0.55 0.42
0.61 0.68 0.83 0.91 1.09 1.21 1.22 1.00 0.80 0.60 0.52 0.42 0.36 0.32 0.31 0.29 0.59 0.89 0.78 0.89 1.18 1.36 1.34 0.68 0.72 0.81 0.63
0.91 0.93 0.98 1.05 1.12 1.14 0.93 0.69 0.50 0.36 0.21 0.15 0.28 0.42 0.47 0.26 0.29 0.68 0.95 0.94 0.81 0.86 0.91 0.62 0.69 0.88 0.69